Home > Weather > Mutsamudu > Past weeks

Flag for Comoros Past Weather in Mutsamudu, Comoros — Yesterday and Last 2 Weeks

Now
79 °F

Passing clouds.


Feels Like: 81 °F
Forecast: 76 / 79 °F
Wind: 12 mph from Southeast

Location: Dzaoudzi / Pamanzi Mayotte

Current Time: May 24, 2016 at 8:44:08 PM

Latest Report: May 24, 2016 at 8:00 PM


Visibility: N/A

Pressure: 30.09 "Hg

Humidity: 65%

Dew Point: 66 °F

Location of MutsamuduLocation

Past Weather in Mutsamudu — Graph

°F

Mutsamudu Temperature Yesterday

Maximum temperature yesterday: 84 °F (at 1:04 PM)
Minimum temperature yesterday: 79 °F (at 12:30 AM)
Average temperature yesterday: 80 °F

High & Low Weather Summary for the Past Weeks

 TemperatureHumidityPressure
High88 °F (May 14, 11:00 AM)84% (May 14, 1:00 AM)30.15 "Hg (May 14, 1:00 AM)
Low77 °F (May 19, 11:30 PM)45% (May 22, 9:00 AM)29.89 "Hg (May 17, 2:00 PM)
Average82 °F66%30.00 "Hg
* Reported May 9 7:00 PM — May 24 7:30 PM, Mutsamudu, Weather by CustomWeather, © 2016

Note: Actual official high and low records may vary slightly from our data, if they occured in-between our weather recording intervals... More about our weather records

Advertising

Mutsamudu Weather History for the Previous 24 Hours

Scroll right to see more
 ConditionsComfort  
Time TempWeatherWind HumidityBarometerVisibility
7:30 PM
Tue, May 24
79 °FPassing clouds.12 mph65%30.09 "HgN/A
7:00 PM77 °FPassing clouds.9 mph69%30.09 "HgN/A
6:30 PM77 °FPassing clouds.9 mph65%30.09 "HgN/A
6:05 PM79 °FPassing clouds.12 mph65%30.09 "HgN/A
5:30 PM79 °FPassing clouds.12 mph65%30.07 "HgN/A
5:00 PM81 °FPassing clouds.13 mph62%30.07 "HgN/A
4:30 PM82 °FPassing clouds.12 mph58%30.07 "HgN/A
4:00 PM82 °FPassing clouds.12 mph58%30.07 "HgN/A
3:30 PM82 °FPassing clouds.13 mph58%30.07 "HgN/A
3:05 PM82 °FPassing clouds.13 mph58%30.07 "HgN/A
2:30 PM82 °FPassing clouds.13 mph58%30.07 "HgN/A
2:00 PM84 °FPassing clouds.13 mph55%30.07 "HgN/A
1:30 PM82 °FPassing clouds.14 mph58%30.07 "HgN/A
1:00 PM82 °FPassing clouds.14 mph58%30.07 "HgN/A
12:30 PM84 °FPassing clouds.14 mph58%30.09 "HgN/A
12:04 PM82 °FPassing clouds.13 mph58%30.09 "HgN/A
11:30 AM82 °FScattered clouds.13 mph58%30.12 "HgN/A
11:00 AM82 °FScattered clouds.12 mph58%30.12 "HgN/A
10:30 AM82 °FScattered clouds.10 mph58%30.12 "HgN/A
10:00 AM82 °FScattered clouds.14 mph62%30.12 "HgN/A
9:30 AM81 °FPassing clouds.17 mph62%30.12 "HgN/A
9:00 AM81 °FPassing clouds.17 mph62%30.12 "HgN/A
8:34 AM81 °FPassing clouds.20 mph62%30.12 "HgN/A
8:00 AM81 °FPassing clouds.18 mph62%30.12 "HgN/A
7:30 AM81 °FPassing clouds.20 mph62%30.12 "HgN/A
7:00 AM79 °FPassing clouds.20 mph65%30.09 "HgN/A
6:30 AM79 °FPassing clouds.20 mph65%30.09 "HgN/A
6:00 AM79 °FPassing clouds.20 mph65%30.09 "HgN/A
5:36 AM79 °FPassing clouds.20 mph61%30.07 "HgN/A
5:04 AM79 °FPassing clouds.18 mph61%30.07 "HgN/A
5:00 AM79 °FWarm.18 mph61%30.07 "HgN/A
4:30 AM79 °FWarm.20 mph65%30.07 "HgN/A
4:00 AM79 °FPassing clouds.18 mph65%30.07 "HgN/A
3:30 AM79 °FPassing clouds.20 mph70%30.07 "HgN/A
3:00 AM79 °FPassing clouds.20 mph70%30.07 "HgN/A
2:30 AM79 °FPassing clouds.20 mph65%30.07 "HgN/A
2:00 AM81 °FPassing clouds.17 mph62%30.09 "HgN/A
1:30 AM81 °FPassing clouds.16 mph62%30.09 "HgN/A
1:00 AM81 °FPassing clouds.14 mph66%30.09 "HgN/A
12:30 AM81 °FPassing clouds.14 mph62%30.09 "HgN/A
12:00 AM81 °FPassing clouds.13 mph66%30.12 "HgN/A
11:30 PM
Mon, May 23
79 °FPassing clouds.12 mph65%30.12 "HgN/A
11:00 PM79 °FWarm.14 mph61%30.12 "HgN/A
10:30 PM79 °FWarm.12 mph58%30.12 "HgN/A
10:00 PM79 °FWarm.12 mph58%30.12 "HgN/A
9:30 PM79 °FWarm.13 mph58%30.12 "HgN/A
9:00 PM79 °FWarm.13 mph58%30.12 "HgN/A
8:30 PM79 °FWarm.15 mph58%30.12 "HgN/A
8:00 PM79 °FWarm.15 mph61%30.12 "HgN/A
Weather by CustomWeather, © 2016

See weather overviewHow to use our weather pages